FIN576 EFKT-EFHK

Flight info

Callsign FIN576
Flight time 1h 18m
Altitude 39000
Route TUGPU Y86 LUSEP
Aircraft E190/M-SDE3GILORVW/S

Departure

Time 2026-04-15 13:02
Airport Kittilä International Airport (EFKT)

Arrival

Time 2026-04-15 14:21
Airport Helsinki Vantaa Airport (EFHK)
Time Latitude Longitude Altitude Speed Heading
2026-04-15 12:50 67.69544 24.85683 633 ft 0 kts 128°
2026-04-15 12:56 67.69541 24.85686 633 ft 0 kts 164°
2026-04-15 12:56 67.69534 24.85669 633 ft 2 kts 238°
2026-04-15 12:56 67.69531 24.85634 634 ft 2 kts 266°
2026-04-15 12:56 67.69531 24.85583 634 ft 3 kts 275°
2026-04-15 12:57 67.69543 24.85514 634 ft 5 kts 322°
2026-04-15 12:57 67.69583 24.85481 634 ft 7 kts 348°
2026-04-15 12:57 67.69643 24.85449 634 ft 10 kts 348°
2026-04-15 12:57 67.69717 24.85400 635 ft 12 kts 345°
2026-04-15 12:58 67.69804 24.85335 634 ft 13 kts 346°
2026-04-15 12:58 67.69894 24.85275 634 ft 13 kts 346°
2026-04-15 12:58 67.69990 24.85207 634 ft 14 kts 345°
2026-04-15 12:58 67.70091 24.85140 634 ft 15 kts 347°
2026-04-15 12:59 67.70299 24.85005 634 ft 16 kts 346°
2026-04-15 12:59 67.70409 24.84934 635 ft 16 kts 347°
2026-04-15 12:59 67.70518 24.84867 635 ft 16 kts 347°
2026-04-15 13:00 67.70630 24.84791 635 ft 16 kts 345°
2026-04-15 13:00 67.70724 24.84720 636 ft 7 kts 322°
2026-04-15 13:00 67.70737 24.84593 636 ft 7 kts 264°
2026-04-15 13:00 67.70726 24.84464 637 ft 7 kts 255°
2026-04-15 13:01 67.70713 24.84340 637 ft 6 kts 255°
2026-04-15 13:01 67.70678 24.84306 637 ft 6 kts 167°
2026-04-15 13:01 67.70510 24.84421 636 ft 59 kts 166°
2026-04-15 13:01 67.69875 24.84838 635 ft 126 kts 166°
2026-04-15 13:02 67.68866 24.85461 828 ft 161 kts 167°
2026-04-15 13:02 67.67762 24.86065 1605 ft 164 kts 168°
2026-04-15 13:02 67.66738 24.86714 2581 ft 153 kts 169°
2026-04-15 13:02 67.65646 24.87300 3066 ft 172 kts 171°
2026-04-15 13:03 67.64425 24.88137 3537 ft 194 kts 167°
2026-04-15 13:03 67.63062 24.89112 4197 ft 209 kts 167°
2026-04-15 13:03 67.61683 24.90065 5131 ft 209 kts 168°
2026-04-15 13:03 67.60313 24.90996 6102 ft 207 kts 165°
2026-04-15 13:04 67.58989 24.92582 6724 ft 224 kts 155°
2026-04-15 13:04 67.57523 24.94621 7087 ft 253 kts 155°
2026-04-15 13:04 67.55917 24.96848 7691 ft 270 kts 155°
2026-04-15 13:04 67.54245 24.99159 8521 ft 276 kts 155°
2026-04-15 13:05 67.52551 25.01494 9494 ft 277 kts 155°
2026-04-15 13:05 67.50864 25.03814 10428 ft 278 kts 155°
2026-04-15 13:05 67.49151 25.06163 11196 ft 284 kts 155°
2026-04-15 13:05 67.47376 25.08592 11867 ft 293 kts 155°
2026-04-15 13:06 67.45551 25.11087 12467 ft 304 kts 155°
2026-04-15 13:06 67.43671 25.13652 13091 ft 313 kts 155°
2026-04-15 13:06 67.41740 25.16283 13818 ft 318 kts 154°
2026-04-15 13:06 67.39776 25.18954 14610 ft 320 kts 154°
2026-04-15 13:07 67.37796 25.21641 15418 ft 322 kts 155°
2026-04-15 13:07 67.35833 25.24300 16192 ft 324 kts 155°
2026-04-15 13:07 67.33834 25.27001 16937 ft 326 kts 155°
2026-04-15 13:07 67.31817 25.29723 17667 ft 329 kts 155°
2026-04-15 13:08 67.29794 25.32406 18363 ft 330 kts 159°
2026-04-15 13:08 67.27557 25.33630 19006 ft 328 kts 177°
2026-04-15 13:08 67.25301 25.34058 19737 ft 329 kts 178°
2026-04-15 13:08 67.23049 25.34458 20483 ft 329 kts 178°
2026-04-15 13:09 67.20749 25.34856 21256 ft 328 kts 179°
2026-04-15 13:09 67.18493 25.35242 22006 ft 327 kts 179°
2026-04-15 13:09 67.16232 25.35626 22722 ft 326 kts 179°
2026-04-15 13:09 67.13984 25.36006 23397 ft 326 kts 179°
2026-04-15 13:10 67.11738 25.36385 24061 ft 326 kts 180°
2026-04-15 13:10 67.09470 25.36768 24723 ft 325 kts 180°
2026-04-15 13:10 67.07217 25.37145 25266 ft 328 kts 179°
2026-04-15 13:10 67.04902 25.37534 25734 ft 333 kts 180°
2026-04-15 13:11 67.02570 25.37923 26165 ft 339 kts 179°
2026-04-15 13:11 67.00208 25.38318 26644 ft 343 kts 179°
2026-04-15 13:11 66.97822 25.38717 27154 ft 345 kts 179°
2026-04-15 13:11 66.95443 25.39113 27636 ft 349 kts 179°
2026-04-15 13:12 66.93005 25.39517 28112 ft 352 kts 179°
2026-04-15 13:12 66.90558 25.39924 28585 ft 355 kts 179°
2026-04-15 13:12 66.88090 25.40333 29026 ft 359 kts 179°
2026-04-15 13:12 66.85566 25.40750 29512 ft 362 kts 179°
2026-04-15 13:13 66.83039 25.41165 29967 ft 365 kts 179°
2026-04-15 13:13 66.80499 25.41582 30407 ft 369 kts 179°
2026-04-15 13:13 66.77924 25.42004 30840 ft 373 kts 179°
2026-04-15 13:13 66.75359 25.42422 31215 ft 377 kts 179°
2026-04-15 13:14 66.72726 25.42852 31521 ft 381 kts 179°
2026-04-15 13:14 66.70051 25.43287 31800 ft 385 kts 179°
2026-04-15 13:14 66.67364 25.43723 32062 ft 389 kts 179°
2026-04-15 13:14 66.64668 25.44160 32339 ft 393 kts 179°
2026-04-15 13:15 66.61945 25.44600 32635 ft 395 kts 179°
2026-04-15 13:15 66.59199 25.45043 32925 ft 397 kts 178°
2026-04-15 13:15 66.56461 25.45484 33207 ft 398 kts 178°
2026-04-15 13:15 66.53693 25.45928 33479 ft 400 kts 178°
2026-04-15 13:16 66.50874 25.46380 33740 ft 402 kts 178°
2026-04-15 13:16 66.48112 25.46822 33984 ft 404 kts 178°
2026-04-15 13:16 66.45277 25.47273 34213 ft 406 kts 178°
2026-04-15 13:16 66.42487 25.47716 34474 ft 407 kts 178°
2026-04-15 13:17 66.39649 25.48166 34784 ft 408 kts 178°
2026-04-15 13:17 66.36819 25.48612 35087 ft 407 kts 178°
2026-04-15 13:17 66.34023 25.49053 35379 ft 407 kts 178°
2026-04-15 13:17 66.31181 25.49500 35649 ft 407 kts 178°
2026-04-15 13:18 66.28379 25.49939 35914 ft 408 kts 178°
2026-04-15 13:18 66.25549 25.50382 36187 ft 408 kts 178°
2026-04-15 13:18 66.22728 25.50822 36437 ft 408 kts 178°
2026-04-15 13:18 66.19900 25.51262 36679 ft 409 kts 178°
2026-04-15 13:19 66.17087 25.51700 36902 ft 409 kts 178°
2026-04-15 13:19 66.14243 25.52141 37116 ft 410 kts 178°
2026-04-15 13:19 66.11403 25.52580 37323 ft 411 kts 178°
2026-04-15 13:19 66.08547 25.53021 37511 ft 411 kts 178°
2026-04-15 13:20 66.05705 25.53062 37687 ft 411 kts 183°
2026-04-15 13:20 66.02849 25.52879 37867 ft 412 kts 182°
2026-04-15 13:20 65.99986 25.52703 38035 ft 413 kts 182°
2026-04-15 13:20 65.97092 25.52527 38193 ft 414 kts 183°
2026-04-15 13:21 65.94199 25.52351 38361 ft 414 kts 182°
2026-04-15 13:21 65.91316 25.52177 38530 ft 415 kts 182°
2026-04-15 13:21 65.88437 25.52004 38712 ft 415 kts 182°
2026-04-15 13:21 65.85551 25.51831 38890 ft 415 kts 182°
2026-04-15 13:22 65.82650 25.51657 39072 ft 416 kts 182°
2026-04-15 13:22 65.79778 25.51485 39266 ft 416 kts 183°
2026-04-15 13:22 65.74097 25.51146 39362 ft 416 kts 182°
2026-04-15 13:23 65.68232 25.50797 39366 ft 429 kts 182°
2026-04-15 13:23 65.62196 25.50441 39362 ft 441 kts 182°
2026-04-15 13:24 65.56094 25.50082 39359 ft 443 kts 182°
2026-04-15 13:24 65.49935 25.49723 39361 ft 442 kts 182°
2026-04-15 13:25 65.43832 25.49366 39365 ft 443 kts 182°
2026-04-15 13:25 65.37688 25.49010 39364 ft 442 kts 182°
2026-04-15 13:26 65.31596 25.48658 39364 ft 442 kts 182°
2026-04-15 13:26 65.25433 25.48300 39364 ft 443 kts 182°
2026-04-15 13:27 65.19248 25.47941 39362 ft 442 kts 182°
2026-04-15 13:27 65.13045 25.47582 39356 ft 442 kts 182°
2026-04-15 13:28 65.06932 25.47236 39359 ft 441 kts 182°
2026-04-15 13:28 65.00826 25.46893 39361 ft 442 kts 182°
2026-04-15 13:29 64.94670 25.46544 39360 ft 441 kts 182°
2026-04-15 13:29 64.88553 25.46195 39363 ft 442 kts 182°
2026-04-15 13:30 64.82256 25.45837 39365 ft 442 kts 182°
2026-04-15 13:30 64.76129 25.45490 39364 ft 443 kts 182°
2026-04-15 13:31 64.69997 25.45145 39362 ft 442 kts 182°
2026-04-15 13:31 64.63872 25.44802 39361 ft 442 kts 182°
2026-04-15 13:32 64.57730 25.44459 39361 ft 441 kts 182°
2026-04-15 13:32 64.51550 25.44116 39366 ft 442 kts 182°
2026-04-15 13:33 64.45431 25.43778 39365 ft 441 kts 182°
2026-04-15 13:33 64.39318 25.43442 39365 ft 441 kts 182°
2026-04-15 13:34 64.33199 25.43108 39366 ft 442 kts 182°
2026-04-15 13:34 64.27065 25.42775 39367 ft 443 kts 182°
2026-04-15 13:35 64.20927 25.42443 39371 ft 442 kts 182°
2026-04-15 13:35 64.14807 25.42113 39370 ft 443 kts 182°
2026-04-15 13:36 64.08669 25.41784 39372 ft 442 kts 182°
2026-04-15 13:36 64.02542 25.41457 39372 ft 442 kts 182°
2026-04-15 13:37 63.96386 25.41130 39371 ft 443 kts 182°
2026-04-15 13:37 63.90199 25.40803 39372 ft 443 kts 182°
2026-04-15 13:38 63.84042 25.40479 39370 ft 443 kts 182°
2026-04-15 13:38 63.77859 25.40166 39365 ft 442 kts 182°
2026-04-15 13:39 63.71677 25.39855 39367 ft 443 kts 182°
2026-04-15 13:39 63.65498 25.39524 39363 ft 442 kts 182°
2026-04-15 13:40 63.59355 25.39197 39362 ft 442 kts 182°
2026-04-15 13:40 63.53199 25.38878 39361 ft 441 kts 182°
2026-04-15 13:41 63.47046 25.38562 39358 ft 441 kts 182°
2026-04-15 13:41 63.40887 25.38247 39356 ft 442 kts 182°
2026-04-15 13:42 63.34741 25.37933 39356 ft 441 kts 182°
2026-04-15 13:42 63.28647 25.37620 39354 ft 442 kts 182°
2026-04-15 13:43 63.22543 25.37309 39353 ft 442 kts 182°
2026-04-15 13:43 63.16444 25.36999 39351 ft 441 kts 182°
2026-04-15 13:44 63.10331 25.36690 39355 ft 441 kts 182°
2026-04-15 13:44 63.04210 25.36381 39355 ft 441 kts 182°
2026-04-15 13:45 62.98080 25.36073 39352 ft 442 kts 182°
2026-04-15 13:47 62.73504 25.34848 39354 ft 441 kts 182°
2026-04-15 13:47 62.67334 25.34541 39355 ft 441 kts 182°
2026-04-15 13:48 62.61185 25.34237 39352 ft 441 kts 182°
2026-04-15 13:48 62.55123 25.33938 39339 ft 424 kts 182°
2026-04-15 13:49 62.49225 25.33649 39338 ft 422 kts 182°
2026-04-15 13:49 62.43297 25.33363 39346 ft 424 kts 182°
2026-04-15 13:50 62.37369 25.33078 39349 ft 424 kts 182°
2026-04-15 13:50 62.31433 25.32793 39349 ft 423 kts 182°
2026-04-15 13:51 62.25504 25.32510 39349 ft 425 kts 182°
2026-04-15 13:51 62.19609 25.32229 38922 ft 429 kts 182°
2026-04-15 13:52 62.16669 25.32091 38478 ft 426 kts 182°
2026-04-15 13:52 62.13716 25.31951 38007 ft 422 kts 182°
2026-04-15 13:52 62.10794 25.31813 37539 ft 417 kts 182°
2026-04-15 13:52 62.07959 25.31679 37087 ft 415 kts 182°
2026-04-15 13:53 62.05087 25.31541 36632 ft 414 kts 182°
2026-04-15 13:53 62.02202 25.31402 36177 ft 414 kts 182°
2026-04-15 13:53 61.99345 25.31264 35791 ft 414 kts 182°
2026-04-15 13:53 61.96414 25.31125 35364 ft 415 kts 182°
2026-04-15 13:54 61.93552 25.30991 34905 ft 414 kts 182°
2026-04-15 13:54 61.90686 25.30857 34329 ft 409 kts 182°
2026-04-15 13:54 61.87907 25.30727 33881 ft 403 kts 182°
2026-04-15 13:54 61.85036 25.30593 33423 ft 407 kts 182°
2026-04-15 13:55 61.82202 25.30461 32971 ft 410 kts 182°
2026-04-15 13:55 61.79333 25.30328 32511 ft 411 kts 182°
2026-04-15 13:55 61.76423 25.30193 32055 ft 412 kts 182°
2026-04-15 13:55 61.73578 25.30061 31603 ft 413 kts 182°
2026-04-15 13:56 61.70687 25.29928 31133 ft 411 kts 182°
2026-04-15 13:56 61.67819 25.29795 30680 ft 408 kts 182°
2026-04-15 13:56 61.65006 25.29666 30209 ft 403 kts 182°
2026-04-15 13:56 61.62186 25.29536 29758 ft 400 kts 182°
2026-04-15 13:57 61.59412 25.29406 29318 ft 397 kts 182°
2026-04-15 13:57 61.56657 25.29276 28878 ft 395 kts 182°
2026-04-15 13:57 61.53899 25.29147 28431 ft 392 kts 182°
2026-04-15 13:57 61.51157 25.29019 27991 ft 390 kts 182°
2026-04-15 13:58 61.48473 25.28893 27567 ft 387 kts 182°
2026-04-15 13:58 61.45771 25.28767 27167 ft 384 kts 182°
2026-04-15 13:58 61.43070 25.28641 26740 ft 383 kts 182°
2026-04-15 13:58 61.40408 25.28518 26291 ft 382 kts 182°
2026-04-15 13:59 61.37761 25.28395 25866 ft 378 kts 182°
2026-04-15 13:59 61.35157 25.28274 25447 ft 376 kts 182°
2026-04-15 13:59 61.32541 25.28153 25030 ft 374 kts 182°
2026-04-15 13:59 61.29941 25.28033 24618 ft 372 kts 182°
2026-04-15 14:00 61.27371 25.27915 24202 ft 371 kts 182°
2026-04-15 14:00 61.24788 25.27799 23792 ft 369 kts 182°
2026-04-15 14:00 61.22239 25.27683 23395 ft 367 kts 182°
2026-04-15 14:00 61.19684 25.27568 22988 ft 366 kts 182°
2026-04-15 14:01 61.14579 25.27338 22176 ft 361 kts 182°
2026-04-15 14:01 61.12080 25.27225 21775 ft 359 kts 182°
2026-04-15 14:01 61.09580 25.27113 21379 ft 357 kts 182°
2026-04-15 14:02 61.07071 25.27001 20972 ft 356 kts 182°
2026-04-15 14:02 61.04608 25.26890 20573 ft 355 kts 182°
2026-04-15 14:02 61.02139 25.26780 20187 ft 354 kts 182°
2026-04-15 14:02 60.99709 25.26672 19797 ft 351 kts 182°
2026-04-15 14:03 60.97234 25.26561 19399 ft 349 kts 182°
2026-04-15 14:03 60.94806 25.26494 19030 ft 344 kts 179°
2026-04-15 14:03 60.92472 25.26648 18668 ft 332 kts 179°
2026-04-15 14:03 60.90207 25.26797 18297 ft 320 kts 179°
2026-04-15 14:04 60.87974 25.26943 17950 ft 310 kts 179°
2026-04-15 14:04 60.85828 25.27082 17603 ft 301 kts 179°
2026-04-15 14:04 60.83746 25.27216 17297 ft 299 kts 179°
2026-04-15 14:04 60.81636 25.27352 16972 ft 301 kts 179°
2026-04-15 14:05 60.79547 25.27487 16620 ft 301 kts 179°
2026-04-15 14:05 60.77458 25.27622 16296 ft 301 kts 179°
2026-04-15 14:05 60.75375 25.27756 15957 ft 300 kts 179°
2026-04-15 14:05 60.73293 25.27890 15639 ft 300 kts 179°
2026-04-15 14:06 60.71230 25.28022 15292 ft 298 kts 179°
2026-04-15 14:06 60.69171 25.28154 14971 ft 298 kts 179°
2026-04-15 14:06 60.67107 25.28286 14646 ft 297 kts 179°
2026-04-15 14:06 60.65051 25.28418 14320 ft 295 kts 179°
2026-04-15 14:07 60.63007 25.28548 14003 ft 295 kts 179°
2026-04-15 14:07 60.60989 25.28553 13655 ft 293 kts 189°
2026-04-15 14:07 60.59167 25.26878 13313 ft 292 kts 220°
2026-04-15 14:07 60.57723 25.23928 13009 ft 294 kts 226°
2026-04-15 14:08 60.56348 25.20924 12662 ft 294 kts 226°
2026-04-15 14:08 60.54960 25.17857 12323 ft 294 kts 227°
2026-04-15 14:08 60.53577 25.14787 11994 ft 294 kts 227°
2026-04-15 14:08 60.52209 25.11744 11686 ft 294 kts 227°
2026-04-15 14:09 60.50835 25.08691 11342 ft 292 kts 227°
2026-04-15 14:09 60.49463 25.05643 11015 ft 292 kts 227°
2026-04-15 14:09 60.48105 25.02630 10689 ft 291 kts 227°
2026-04-15 14:09 60.46744 24.99614 10389 ft 291 kts 227°
2026-04-15 14:10 60.45370 24.96574 10072 ft 290 kts 227°
2026-04-15 14:10 60.44027 24.93603 9723 ft 287 kts 227°
2026-04-15 14:10 60.42690 24.90654 9424 ft 286 kts 228°
2026-04-15 14:10 60.41353 24.87705 9111 ft 285 kts 227°
2026-04-15 14:11 60.40012 24.84752 8796 ft 284 kts 227°
2026-04-15 14:11 60.38688 24.81843 8489 ft 284 kts 227°
2026-04-15 14:11 60.37350 24.78904 8196 ft 282 kts 227°
2026-04-15 14:11 60.36029 24.76009 7857 ft 281 kts 227°
2026-04-15 14:12 60.34725 24.73152 7545 ft 279 kts 227°
2026-04-15 14:12 60.33393 24.70237 7254 ft 279 kts 227°
2026-04-15 14:12 60.32094 24.67401 6959 ft 275 kts 228°
2026-04-15 14:12 60.30796 24.64570 6615 ft 267 kts 228°
2026-04-15 14:13 60.29565 24.61887 6339 ft 260 kts 228°
2026-04-15 14:13 60.28329 24.59196 5804 ft 263 kts 227°
2026-04-15 14:13 60.27110 24.56547 5489 ft 259 kts 227°
2026-04-15 14:13 60.25872 24.53857 4948 ft 264 kts 227°
2026-04-15 14:14 60.24620 24.51137 4496 ft 261 kts 227°
2026-04-15 14:14 60.23309 24.48827 4112 ft 250 kts 205°
2026-04-15 14:14 60.21703 24.48380 3631 ft 228 kts 164°
2026-04-15 14:14 60.20427 24.49940 3256 ft 209 kts 132°
2026-04-15 14:15 60.19443 24.52032 2931 ft 206 kts 130°
2026-04-15 14:15 60.18803 24.54469 2495 ft 200 kts 94°
2026-04-15 14:15 60.19120 24.57068 2323 ft 186 kts 69°
2026-04-15 14:15 60.19538 24.59442 2267 ft 171 kts 73°
2026-04-15 14:16 60.19872 24.61713 2305 ft 172 kts 75°
2026-04-15 14:16 60.20179 24.64088 2301 ft 175 kts 76°
2026-04-15 14:16 60.20486 24.66443 2273 ft 177 kts 66°
2026-04-15 14:16 60.21224 24.68428 2248 ft 178 kts 49°
2026-04-15 14:17 60.22075 24.70277 2218 ft 179 kts 49°
2026-04-15 14:17 60.22919 24.72112 2191 ft 179 kts 49°
2026-04-15 14:17 60.23761 24.73943 2188 ft 178 kts 49°
2026-04-15 14:17 60.24600 24.75768 2108 ft 176 kts 49°
2026-04-15 14:18 60.25367 24.77437 1932 ft 154 kts 49°
2026-04-15 14:18 60.26081 24.78994 1718 ft 148 kts 49°
2026-04-15 14:18 60.26790 24.80542 1517 ft 148 kts 50°
2026-04-15 14:18 60.27469 24.82023 1313 ft 143 kts 50°
2026-04-15 14:19 60.28140 24.83490 1128 ft 143 kts 51°
2026-04-15 14:19 60.28798 24.84905 972 ft 135 kts 49°
2026-04-15 14:19 60.29436 24.86263 802 ft 131 kts 50°
2026-04-15 14:19 60.30030 24.87580 577 ft 122 kts 52°
2026-04-15 14:20 60.30597 24.88855 440 ft 123 kts 51°
2026-04-15 14:20 60.31193 24.90153 270 ft 128 kts 52°
2026-04-15 14:20 60.31753 24.91415 187 ft 104 kts 48°
2026-04-15 14:20 60.32140 24.92260 187 ft 53 kts 54°
2026-04-15 14:21 60.32255 24.92884 187 ft 37 kts 77°
2026-04-15 14:21 60.32251 24.93147 187 ft 15 kts 134°
2026-04-15 14:21 60.32264 24.93312 187 ft 14 kts 50°
2026-04-15 14:21 60.32332 24.93470 187 ft 15 kts 48°
2026-04-15 14:22 60.32413 24.93636 187 ft 17 kts 46°
2026-04-15 14:22 60.32501 24.93831 187 ft 19 kts 49°
2026-04-15 14:22 60.32594 24.94042 187 ft 21 kts 47°
2026-04-15 14:22 60.32701 24.94273 187 ft 23 kts 46°
2026-04-15 14:23 60.32812 24.94524 187 ft 25 kts 48°
2026-04-15 14:23 60.32917 24.94753 187 ft 12 kts 48°
2026-04-15 14:23 60.32910 24.94877 187 ft 10 kts 140°
2026-04-15 14:23 60.32837 24.94951 187 ft 13 kts 162°
2026-04-15 14:24 60.32735 24.95016 187 ft 12 kts 159°
2026-04-15 14:24 60.32655 24.95065 187 ft 13 kts 161°
2026-04-15 14:24 60.32562 24.95130 187 ft 15 kts 162°
2026-04-15 14:24 60.32453 24.95198 187 ft 17 kts 162°
2026-04-15 14:25 60.32336 24.95283 187 ft 18 kts 151°
2026-04-15 14:25 60.32235 24.95459 187 ft 20 kts 137°
2026-04-15 14:25 60.32129 24.95654 187 ft 20 kts 137°
2026-04-15 14:25 60.32023 24.95856 187 ft 21 kts 138°
2026-04-15 14:26 60.31923 24.96043 187 ft 11 kts 135°
2026-04-15 14:26 60.31937 24.96182 187 ft 11 kts 46°
2026-04-15 14:26 60.31980 24.96285 187 ft 5 kts 78°
2026-04-15 14:26 60.31959 24.96332 187 ft 5 kts 142°
2026-04-15 14:27 60.31934 24.96377 187 ft 0 kts 137°